Time,TemperatureF,DewpointF,PressureIn,WindDirection,WindDirectionDegrees,WindSpeedMPH,WindSpeedGustMPH,Humidity,HourlyPrecipIn,Conditions,Clouds,dailyrainin,SoftwareType,DateUTC
2013-03-12 00:00:00,51.4,50.0,29.90,NNW,332,2.0,3.0,95,0.02,,---,0.02,VWS V14.01,2013-03-12 04:00:00,
2013-03-12 00:05:00,51.4,50.0,29.90,NW,311,4.0,5.0,95,0.02,,---,0.02,VWS V14.01,2013-03-12 04:05:00,
2013-03-12 00:10:00,51.4,50.0,29.90,NW,311,0.0,3.0,95,0.01,,---,0.02,VWS V14.01,2013-03-12 04:10:00,
2013-03-12 00:15:00,51.4,50.0,29.90,NW,311,1.0,2.0,95,0.01,,---,0.00,VWS V14.01,2013-03-12 04:15:00,
2013-03-12 00:20:00,51.4,50.3,29.90,WNW,294,2.0,3.0,96,0.01,,---,0.00,VWS V14.01,2013-03-12 04:20:00,
2013-03-12 00:25:00,51.4,50.3,29.88,WSW,254,0.0,3.0,96,0.01,,---,0.00,VWS V14.01,2013-03-12 04:25:00,
2013-03-12 00:30:00,51.4,50.3,29.88,WSW,254,2.0,3.0,96,0.01,,---,0.00,VWS V14.01,2013-03-12 04:30:00,
2013-03-12 00:35:00,51.4,50.3,29.88,WSW,254,1.0,3.0,96,0.01,,---,0.00,VWS V14.01,2013-03-12 04:35:00,
2013-03-12 00:40:00,51.6,50.5,29.87,WSW,255,1.0,3.0,96,0.00,,---,0.00,VWS V14.01,2013-03-12 04:40:00,
2013-03-12 00:45:00,51.6,50.2,29.87,West,267,0.0,4.0,95,0.00,,---,0.00,VWS V14.01,2013-03-12 04:45:00,
2013-03-12 00:50:00,51.7,50.3,29.87,West,267,0.0,3.0,95,0.00,,---,0.00,VWS V14.01,2013-03-12 04:50:00,
2013-03-12 00:55:00,51.7,50.3,29.87,West,267,0.0,2.0,95,0.00,,---,0.00,VWS V14.01,2013-03-12 04:55:00,
2013-03-12 01:00:00,51.9,50.5,29.87,West,267,0.0,1.0,95,0.00,,---,0.00,VWS V14.01,2013-03-12 05:00:00,
2013-03-12 01:05:00,51.9,50.5,29.87,West,267,0.0,0.0,95,0.00,,---,0.00,VWS V14.01,2013-03-12 05:05:00,
2013-03-12 01:10:00,52.0,50.3,29.86,West,267,0.0,0.0,94,0.00,,---,0.00,VWS V14.01,2013-03-12 05:10:00,
2013-03-12 01:15:00,52.0,50.3,29.86,West,267,0.0,0.0,94,0.00,,---,0.00,VWS V14.01,2013-03-12 05:15:00,
2013-03-12 01:20:00,52.0,50.3,29.86,West,267,2.0,3.0,94,0.00,,---,0.00,VWS V14.01,2013-03-12 05:20:00,
2013-03-12 01:25:00,52.2,50.2,29.86,SW,227,3.0,4.0,93,0.00,,---,0.00,VWS V14.01,2013-03-12 05:25:00,
2013-03-12 01:30:00,52.3,50.3,29.86,SW,227,0.0,4.0,93,0.00,,---,0.00,VWS V14.01,2013-03-12 05:30:00,
2013-03-12 01:35:00,52.3,50.0,29.86,SW,223,5.0,7.0,92,0.00,,---,0.00,VWS V14.01,2013-03-12 05:35:00,
2013-03-12 01:40:00,52.4,49.8,29.86,SSW,202,3.0,10.0,91,0.00,,---,0.00,VWS V14.01,2013-03-12 05:40:00,
2013-03-12 01:45:00,52.7,50.2,29.86,SSW,207,7.0,9.0,91,0.00,,---,0.00,VWS V14.01,2013-03-12 05:45:00,
2013-03-12 01:50:00,53.0,50.2,29.86,SSW,196,5.0,12.0,90,0.00,,---,0.00,VWS V14.01,2013-03-12 05:50:00,
2013-03-12 01:55:00,53.2,50.3,29.86,SW,217,7.0,11.0,90,0.00,,---,0.00,VWS V14.01,2013-03-12 05:55:00,
2013-03-12 02:00:00,53.3,50.2,29.86,WSW,241,8.0,11.0,89,0.00,,---,0.00,VWS V14.01,2013-03-12 06:00:00,
2013-03-12 02:05:00,53.5,50.6,29.86,SSW,204,7.0,7.0,90,0.00,,---,0.00,VWS V14.01,2013-03-12 06:05:00,
2013-03-12 02:10:00,53.5,50.6,29.86,SW,234,5.0,10.0,90,0.00,,---,0.00,VWS V14.01,2013-03-12 06:10:00,
2013-03-12 02:15:00,53.5,50.6,29.86,SSW,198,10.0,10.0,90,0.00,,---,0.00,VWS V14.01,2013-03-12 06:15:00,
2013-03-12 02:20:00,53.5,50.6,29.86,SW,221,4.0,6.0,90,0.00,,---,0.00,VWS V14.01,2013-03-12 06:20:00,
2013-03-12 02:25:00,53.5,50.6,29.86,SW,232,7.0,7.0,90,0.00,,---,0.00,VWS V14.01,2013-03-12 06:25:00,
2013-03-12 02:30:00,53.5,50.6,29.86,SW,225,4.0,11.0,90,0.00,,---,0.00,VWS V14.01,2013-03-12 06:30:00,
2013-03-12 02:35:00,53.5,50.9,29.86,West,260,1.0,10.0,91,0.01,,---,0.01,VWS V14.01,2013-03-12 06:35:00,
2013-03-12 02:40:00,53.5,50.9,29.84,SW,229,3.0,5.0,91,0.01,,---,0.01,VWS V14.01,2013-03-12 06:40:00,
2013-03-12 02:45:00,53.5,50.9,29.84,SSW,205,1.0,7.0,91,0.01,,---,0.01,VWS V14.01,2013-03-12 06:45:00,
2013-03-12 02:50:00,53.3,51.0,29.84,SW,222,5.0,9.0,92,0.02,,---,0.02,VWS V14.01,2013-03-12 06:50:00,
2013-03-12 02:55:00,53.3,51.0,29.84,SW,214,3.0,6.0,92,0.02,,---,0.02,VWS V14.01,2013-03-12 06:55:00,
2013-03-12 03:00:00,53.3,51.0,29.84,WSW,240,2.0,5.0,92,0.03,,---,0.03,VWS V14.01,2013-03-12 07:00:00,
2013-03-12 03:05:00,53.2,50.9,29.84,WSW,240,0.0,3.0,92,0.03,,---,0.03,VWS V14.01,2013-03-12 07:05:00,
2013-03-12 03:10:00,53.2,51.2,29.84,WSW,240,0.0,3.0,93,0.03,,---,0.03,VWS V14.01,2013-03-12 07:10:00,
2013-03-12 03:15:00,53.2,51.2,29.84,WSW,240,1.0,1.0,93,0.03,,---,0.03,VWS V14.01,2013-03-12 07:15:00,
2013-03-12 03:19:00,53.2,51.2,29.84,WSW,240,0.0,2.0,93,0.03,,---,0.03,VWS V14.01,2013-03-12 07:19:00,
2013-03-12 03:20:00,53.5,50.7,29.86,SSW,213,5.0,11.0,90,0.00,,---,0.00,VWS V14.01,2013-03-12 07:20:00,
2013-03-12 03:24:00,53.0,51.0,29.84,WSW,240,0.0,2.0,93,0.04,,---,0.04,VWS V14.01,2013-03-12 07:24:00,
2013-03-12 03:25:00,53.5,50.9,29.86,West,260,2.0,10.0,91,0.01,,---,0.01,VWS V14.01,2013-03-12 07:25:00,
2013-03-12 03:29:00,53.0,51.0,29.83,WSW,240,0.0,0.0,93,0.05,,---,0.05,VWS V14.01,2013-03-12 07:29:00,
2013-03-12 03:30:00,53.5,50.9,29.84,West,260,4.0,5.0,91,0.01,,---,0.01,VWS V14.01,2013-03-12 07:30:00,
2013-03-12 03:34:00,52.9,50.9,29.83,WSW,240,0.0,2.0,93,0.06,,---,0.06,VWS V14.01,2013-03-12 07:34:00,
2013-03-12 03:35:00,53.3,50.7,29.84,SW,226,4.0,7.0,91,0.01,,---,0.01,VWS V14.01,2013-03-12 07:35:00,
2013-03-12 03:39:00,52.9,51.2,29.83,WSW,240,0.0,0.0,94,0.05,,---,0.06,VWS V14.01,2013-03-12 07:39:00,
2013-03-12 03:40:00,53.3,51.0,29.84,SW,232,3.0,9.0,92,0.02,,---,0.02,VWS V14.01,2013-03-12 07:40:00,
2013-03-12 03:44:00,52.9,51.2,29.83,WSW,240,0.0,0.0,94,0.06,,---,0.07,VWS V14.01,2013-03-12 07:44:00,
2013-03-12 03:45:00,53.3,51.0,29.84,WNW,286,1.0,6.0,92,0.02,,---,0.02,VWS V14.01,2013-03-12 07:45:00,
2013-03-12 03:49:00,52.7,51.0,29.83,WNW,282,3.0,4.0,94,0.07,,---,0.08,VWS V14.01,2013-03-12 07:49:00,
2013-03-12 03:50:00,53.3,51.0,29.84,WSW,240,0.0,5.0,92,0.03,,---,0.03,VWS V14.01,2013-03-12 07:50:00,
2013-03-12 03:54:00,52.6,51.2,29.83,WSW,244,3.0,4.0,95,0.08,,---,0.10,VWS V14.01,2013-03-12 07:54:00,
2013-03-12 03:55:00,53.2,51.2,29.84,WSW,240,0.0,3.0,93,0.03,,---,0.03,VWS V14.01,2013-03-12 07:55:00,
2013-03-12 03:59:00,52.6,51.2,29.82,West,269,3.0,5.0,95,0.10,,---,0.12,VWS V14.01,2013-03-12 07:59:00,
2013-03-12 04:00:00,53.2,51.2,29.84,WSW,240,0.0,3.0,93,0.03,,---,0.03,VWS V14.01,2013-03-12 08:00:00,
2013-03-12 04:04:00,52.7,51.3,29.82,WNW,292,6.0,7.0,95,0.10,,---,0.13,VWS V14.01,2013-03-12 08:04:00,
2013-03-12 04:05:00,53.2,51.2,29.84,WSW,240,0.0,1.0,93,0.03,,---,0.03,VWS V14.01,2013-03-12 08:05:00,
2013-03-12 04:09:00,52.9,51.8,29.82,West,264,0.0,7.0,96,0.11,,---,0.14,VWS V14.01,2013-03-12 08:09:00,
2013-03-12 04:10:00,53.0,51.0,29.84,WSW,240,0.0,2.0,93,0.04,,---,0.04,VWS V14.01,2013-03-12 08:10:00,
2013-03-12 04:14:00,52.9,51.8,29.83,West,265,1.0,4.0,96,0.13,,---,0.16,VWS V14.01,2013-03-12 08:14:00,
2013-03-12 04:15:00,53.0,51.0,29.83,WSW,240,0.0,2.0,93,0.04,,---,0.04,VWS V14.01,2013-03-12 08:15:00,
2013-03-12 04:19:00,52.9,51.8,29.83,West,265,0.0,3.0,96,0.14,,---,0.17,VWS V14.01,2013-03-12 08:19:00,
2013-03-12 04:20:00,53.0,51.0,29.83,WSW,240,0.0,0.0,93,0.05,,---,0.05,VWS V14.01,2013-03-12 08:20:00,
2013-03-12 04:24:00,52.9,51.8,29.83,West,265,0.0,2.0,96,0.14,,---,0.18,VWS V14.01,2013-03-12 08:24:00,
2013-03-12 04:25:00,52.9,51.2,29.83,WSW,240,0.0,2.0,94,0.06,,---,0.06,VWS V14.01,2013-03-12 08:25:00,
2013-03-12 04:29:00,52.9,51.8,29.81,West,265,0.0,1.0,96,0.15,,---,0.19,VWS V14.01,2013-03-12 08:29:00,
2013-03-12 04:30:00,52.9,51.2,29.83,WSW,240,0.0,0.0,94,0.05,,---,0.06,VWS V14.01,2013-03-12 08:30:00,
2013-03-12 04:34:00,52.7,51.6,29.81,West,265,1.0,2.0,96,0.15,,---,0.20,VWS V14.01,2013-03-12 08:34:00,
2013-03-12 04:35:00,52.7,51.0,29.83,WSW,240,0.0,0.0,94,0.06,,---,0.07,VWS V14.01,2013-03-12 08:35:00,
2013-03-12 04:39:00,52.6,51.5,29.81,West,265,0.0,0.0,96,0.15,,---,0.21,VWS V14.01,2013-03-12 08:39:00,
2013-03-12 04:40:00,52.7,51.0,29.83,WNW,282,1.0,4.0,94,0.08,,---,0.09,VWS V14.01,2013-03-12 08:40:00,
2013-03-12 04:44:00,52.6,51.8,29.80,West,266,1.0,2.0,97,0.17,,---,0.23,VWS V14.01,2013-03-12 08:44:00,
2013-03-12 04:45:00,52.6,51.2,29.82,WSW,244,0.0,4.0,95,0.09,,---,0.11,VWS V14.01,2013-03-12 08:45:00,
2013-03-12 04:49:00,52.4,51.6,29.80,West,265,1.0,2.0,97,0.17,,---,0.24,VWS V14.01,2013-03-12 08:49:00,
2013-03-12 04:50:00,52.6,51.2,29.82,West,268,2.0,5.0,95,0.10,,---,0.12,VWS V14.01,2013-03-12 08:50:00,
2013-03-12 04:54:00,52.4,51.6,29.80,West,266,2.0,3.0,97,0.16,,---,0.25,VWS V14.01,2013-03-12 08:54:00,
2013-03-12 04:55:00,52.7,51.3,29.82,West,264,5.0,7.0,95,0.10,,---,0.13,VWS V14.01,2013-03-12 08:55:00,
2013-03-12 04:59:00,52.3,51.5,29.79,WNW,287,0.0,2.0,97,0.16,,---,0.27,VWS V14.01,2013-03-12 08:59:00,
2013-03-12 05:00:00,52.9,51.8,29.83,West,271,2.0,7.0,96,0.12,,---,0.15,VWS V14.01,2013-03-12 09:00:00,
2013-03-12 05:04:00,52.3,51.5,29.79,WNW,287,0.0,2.0,97,0.16,,---,0.28,VWS V14.01,2013-03-12 09:04:00,
2013-03-12 05:05:00,52.9,51.8,29.83,West,265,2.0,4.0,96,0.13,,---,0.16,VWS V14.01,2013-03-12 09:05:00,
2013-03-12 05:09:00,52.3,51.5,29.79,WNW,287,0.0,1.0,97,0.16,,---,0.29,VWS V14.01,2013-03-12 09:09:00,
2013-03-12 05:10:00,52.9,51.8,29.83,West,265,2.0,3.0,96,0.14,,---,0.17,VWS V14.01,2013-03-12 09:10:00,
2013-03-12 05:14:00,52.3,51.8,29.78,WNW,287,0.0,0.0,98,0.16,,---,0.31,VWS V14.01,2013-03-12 09:14:00,
2013-03-12 05:15:00,52.9,51.8,29.81,West,265,0.0,2.0,96,0.14,,---,0.18,VWS V14.01,2013-03-12 09:15:00,
2013-03-12 05:19:00,52.3,51.8,29.78,WNW,287,3.0,4.0,98,0.16,,---,0.32,VWS V14.01,2013-03-12 09:19:00,
2013-03-12 05:20:00,52.9,51.8,29.81,West,265,1.0,1.0,96,0.15,,---,0.19,VWS V14.01,2013-03-12 09:20:00,
2013-03-12 05:24:00,52.3,51.8,29.78,WNW,288,2.0,5.0,98,0.17,,---,0.34,VWS V14.01,2013-03-12 09:24:00,
2013-03-12 05:25:00,52.7,51.6,29.81,West,265,0.0,2.0,96,0.15,,---,0.20,VWS V14.01,2013-03-12 09:25:00,
2013-03-12 05:29:00,52.3,51.8,29.77,NW,309,6.0,6.0,98,0.18,,---,0.36,VWS V14.01,2013-03-12 09:29:00,
2013-03-12 05:30:00,52.6,51.5,29.80,West,265,0.0,1.0,96,0.16,,---,0.22,VWS V14.01,2013-03-12 09:30:00,
2013-03-12 05:34:00,52.4,51.8,29.77,WSW,252,4.0,6.0,98,0.19,,---,0.38,VWS V14.01,2013-03-12 09:34:00,
2013-03-12 05:35:00,52.6,51.8,29.80,West,266,1.0,2.0,97,0.17,,---,0.23,VWS V14.01,2013-03-12 09:35:00,
2013-03-12 05:39:00,52.4,51.8,29.77,West,268,4.0,5.0,98,0.20,,---,0.40,VWS V14.01,2013-03-12 09:39:00,
2013-03-12 05:40:00,52.4,51.6,29.80,West,265,0.0,2.0,97,0.17,,---,0.24,VWS V14.01,2013-03-12 09:40:00,
2013-03-12 05:44:00,52.4,51.8,29.78,WNW,288,0.0,10.0,98,0.20,,---,0.42,VWS V14.01,2013-03-12 09:44:00,
2013-03-12 05:45:00,52.4,51.6,29.79,WNW,286,2.0,3.0,97,0.17,,---,0.26,VWS V14.01,2013-03-12 09:45:00,
2013-03-12 05:49:00,52.6,52.0,29.78,WNW,291,2.0,4.0,98,0.21,,---,0.44,VWS V14.01,2013-03-12 09:49:00,
2013-03-12 05:50:00,52.3,51.5,29.79,WNW,287,0.0,2.0,97,0.16,,---,0.27,VWS V14.01,2013-03-12 09:50:00,
2013-03-12 05:54:00,52.6,52.0,29.78,West,278,1.0,5.0,98,0.22,,---,0.46,VWS V14.01,2013-03-12 09:54:00,
2013-03-12 05:55:00,52.3,51.5,29.79,WNW,287,0.0,2.0,97,0.16,,---,0.28,VWS V14.01,2013-03-12 09:55:00,
2013-03-12 05:59:00,52.6,52.0,29.77,West,277,1.0,4.0,98,0.22,,---,0.48,VWS V14.01,2013-03-12 09:59:00,
2013-03-12 06:00:00,52.3,51.5,29.78,WNW,287,0.0,1.0,97,0.17,,---,0.30,VWS V14.01,2013-03-12 10:00:00,
2013-03-12 06:04:00,52.6,52.0,29.77,SW,228,4.0,6.0,98,0.23,,---,0.50,VWS V14.01,2013-03-12 10:04:00,
2013-03-12 06:05:00,52.3,51.8,29.78,WNW,287,2.0,3.0,98,0.16,,---,0.31,VWS V14.01,2013-03-12 10:05:00,
2013-03-12 06:09:00,52.6,52.0,29.77,SW,227,3.0,6.0,98,0.25,,---,0.53,VWS V14.01,2013-03-12 10:09:00,
2013-03-12 06:10:00,52.3,51.8,29.78,WNW,287,3.0,4.0,98,0.17,,---,0.33,VWS V14.01,2013-03-12 10:10:00,
2013-03-12 06:14:00,52.6,52.0,29.77,SW,227,0.0,3.0,98,0.25,,---,0.55,VWS V14.01,2013-03-12 10:14:00,
2013-03-12 06:15:00,52.3,51.8,29.77,WSW,255,4.0,6.0,98,0.18,,---,0.35,VWS V14.01,2013-03-12 10:15:00,
2013-03-12 06:19:00,52.6,52.0,29.77,SSW,213,0.0,6.0,98,0.27,,---,0.58,VWS V14.01,2013-03-12 10:19:00,
2013-03-12 06:20:00,52.3,51.8,29.77,West,267,6.0,7.0,98,0.18,,---,0.36,VWS V14.01,2013-03-12 10:20:00,
2013-03-12 06:24:00,52.6,52.0,29.77,SSW,213,0.0,0.0,98,0.27,,---,0.60,VWS V14.01,2013-03-12 10:24:00,
2013-03-12 06:25:00,52.4,51.8,29.77,WSW,258,4.0,6.0,98,0.19,,---,0.38,VWS V14.01,2013-03-12 10:25:00,
2013-03-12 06:29:00,52.6,52.0,29.76,SSW,213,0.0,0.0,98,0.28,,---,0.63,VWS V14.01,2013-03-12 10:29:00,
2013-03-12 06:30:00,52.4,51.8,29.78,WSW,254,7.0,7.0,98,0.20,,---,0.40,VWS V14.01,2013-03-12 10:30:00,
2013-03-12 06:34:00,52.6,52.0,29.76,SSW,213,0.0,0.0,98,0.29,,---,0.65,VWS V14.01,2013-03-12 10:34:00,
2013-03-12 06:35:00,52.4,51.8,29.78,WNW,290,3.0,10.0,98,0.20,,---,0.42,VWS V14.01,2013-03-12 10:35:00,
2013-03-12 06:39:00,52.6,52.0,29.76,SSW,213,0.0,2.0,98,0.29,,---,0.67,VWS V14.01,2013-03-12 10:39:00,
2013-03-12 06:40:00,52.4,51.8,29.78,WNW,291,0.0,4.0,98,0.22,,---,0.45,VWS V14.01,2013-03-12 10:40:00,
2013-03-12 06:44:00,52.6,52.0,29.75,SSW,213,0.0,0.0,98,0.30,,---,0.70,VWS V14.01,2013-03-12 10:44:00,
2013-03-12 06:45:00,52.6,52.0,29.77,West,277,1.0,5.0,98,0.23,,---,0.47,VWS V14.01,2013-03-12 10:45:00,
2013-03-12 06:49:00,52.4,51.8,29.75,SSW,213,0.0,0.0,98,0.30,,---,0.72,VWS V14.01,2013-03-12 10:49:00,
2013-03-12 06:50:00,52.6,52.0,29.77,West,277,1.0,4.0,98,0.23,,---,0.49,VWS V14.01,2013-03-12 10:50:00,
2013-03-12 06:54:00,52.4,51.8,29.75,SW,214,3.0,3.0,98,0.30,,---,0.75,VWS V14.01,2013-03-12 10:54:00,
2013-03-12 06:55:00,52.6,52.0,29.77,SW,215,6.0,8.0,98,0.24,,---,0.51,VWS V14.01,2013-03-12 10:55:00,
2013-03-12 06:59:00,52.4,51.8,29.74,West,267,2.0,3.0,98,0.30,,---,0.77,VWS V14.01,2013-03-12 10:59:00,
2013-03-12 07:00:00,52.6,52.0,29.77,SW,227,3.0,6.0,98,0.26,,---,0.54,VWS V14.01,2013-03-12 11:00:00,
2013-03-12 07:04:00,52.4,51.8,29.74,West,267,0.0,2.0,98,0.31,,---,0.80,VWS V14.01,2013-03-12 11:04:00,
2013-03-12 07:05:00,52.6,52.0,29.77,SW,227,2.0,3.0,98,0.26,,---,0.56,VWS V14.01,2013-03-12 11:05:00,
2013-03-12 07:09:00,52.3,52.0,29.74,West,268,2.0,4.0,99,0.32,,---,0.83,VWS V14.01,2013-03-12 11:09:00,
2013-03-12 07:10:00,52.6,52.0,29.77,SSW,213,0.0,6.0,98,0.27,,---,0.58,VWS V14.01,2013-03-12 11:10:00,
2013-03-12 07:14:00,52.4,52.1,29.72,West,268,3.0,3.0,99,0.32,,---,0.86,VWS V14.01,2013-03-12 11:14:00,
2013-03-12 07:15:00,52.6,52.0,29.76,SSW,213,0.0,1.0,98,0.28,,---,0.61,VWS V14.01,2013-03-12 11:15:00,
2013-03-12 07:19:00,52.4,52.1,29.72,NW,315,3.0,4.0,99,0.33,,---,0.89,VWS V14.01,2013-03-12 11:19:00,
2013-03-12 07:20:00,52.6,52.0,29.76,SSW,213,0.0,0.0,98,0.28,,---,0.63,VWS V14.01,2013-03-12 11:20:00,
2013-03-12 07:24:00,52.4,52.1,29.72,NW,315,1.0,2.0,99,0.35,,---,0.93,VWS V14.01,2013-03-12 11:24:00,
2013-03-12 07:25:00,52.6,52.0,29.76,SSW,213,0.0,1.0,98,0.29,,---,0.65,VWS V14.01,2013-03-12 11:25:00,
2013-03-12 07:29:00,52.4,52.1,29.71,NW,315,0.0,2.0,99,0.35,,---,0.96,VWS V14.01,2013-03-12 11:29:00,
2013-03-12 07:30:00,52.6,52.0,29.75,SSW,213,0.0,2.0,98,0.30,,---,0.68,VWS V14.01,2013-03-12 11:30:00,
2013-03-12 07:34:00,52.3,52.0,29.71,NW,315,2.0,3.0,99,0.36,,---,0.99,VWS V14.01,2013-03-12 11:34:00,
2013-03-12 07:35:00,52.6,52.0,29.75,SSW,213,0.0,0.0,98,0.30,,---,0.70,VWS V14.01,2013-03-12 11:35:00,
2013-03-12 07:39:00,52.3,52.0,29.71,WNW,299,4.0,5.0,99,0.38,,---,1.03,VWS V14.01,2013-03-12 11:39:00,
2013-03-12 07:40:00,52.4,51.8,29.75,SSW,213,0.0,0.0,98,0.31,,---,0.73,VWS V14.01,2013-03-12 11:40:00,
2013-03-12 07:44:00,52.4,52.1,29.72,NW,321,3.0,7.0,99,0.39,,---,1.07,VWS V14.01,2013-03-12 11:44:00,
2013-03-12 07:45:00,52.4,51.8,29.74,West,267,2.0,3.0,98,0.30,,---,0.75,VWS V14.01,2013-03-12 11:45:00,
2013-03-12 07:49:00,52.4,52.1,29.72,WNW,303,2.0,6.0,99,0.42,,---,1.12,VWS V14.01,2013-03-12 11:49:00,
2013-03-12 07:50:00,52.4,51.8,29.74,West,267,1.0,3.0,98,0.31,,---,0.78,VWS V14.01,2013-03-12 11:50:00,
2013-03-12 07:54:00,52.6,52.3,29.72,WNW,300,1.0,5.0,99,0.44,,---,1.17,VWS V14.01,2013-03-12 11:54:00,
2013-03-12 07:55:00,52.3,51.8,29.74,West,267,0.0,2.0,98,0.32,,---,0.81,VWS V14.01,2013-03-12 11:55:00,
2013-03-12 07:59:00,52.6,52.6,29.72,WNW,283,1.0,5.0,100,0.45,,---,1.20,VWS V14.01,2013-03-12 11:59:00,
2013-03-12 08:00:00,52.3,52.0,29.72,West,268,1.0,4.0,99,0.33,,---,0.84,VWS V14.01,2013-03-12 12:00:00,
2013-03-12 08:04:00,52.7,52.7,29.72,WNW,290,3.0,5.0,100,0.48,,---,1.26,VWS V14.01,2013-03-12 12:04:00,
2013-03-12 08:05:00,52.4,52.1,29.72,West,268,4.0,4.0,99,0.33,,---,0.87,VWS V14.01,2013-03-12 12:05:00,
2013-03-12 08:09:00,52.7,52.7,29.72,WNW,290,0.0,2.0,100,0.48,,---,1.29,VWS V14.01,2013-03-12 12:09:00,
2013-03-12 08:10:00,52.4,52.1,29.72,NW,315,2.0,4.0,99,0.34,,---,0.90,VWS V14.01,2013-03-12 12:10:00,
2013-03-12 08:14:00,52.9,52.9,29.72,WNW,289,1.0,1.0,100,0.52,,---,1.36,VWS V14.01,2013-03-12 12:14:00,
2013-03-12 08:15:00,52.4,52.1,29.71,NW,315,2.0,2.0,99,0.36,,---,0.94,VWS V14.01,2013-03-12 12:15:00,
2013-03-12 08:19:00,52.9,52.9,29.72,WNW,289,0.0,2.0,100,0.54,,---,1.41,VWS V14.01,2013-03-12 12:19:00,
2013-03-12 08:20:00,52.4,52.1,29.71,NW,315,1.0,2.0,99,0.36,,---,0.97,VWS V14.01,2013-03-12 12:20:00,
2013-03-12 08:24:00,52.9,52.9,29.72,WNW,289,0.0,0.0,100,0.56,,---,1.46,VWS V14.01,2013-03-12 12:24:00,
2013-03-12 08:25:00,52.3,52.0,29.71,NW,315,3.0,3.0,99,0.38,,---,1.01,VWS V14.01,2013-03-12 12:25:00,
2013-03-12 08:29:00,52.9,52.9,29.72,WNW,289,0.0,0.0,100,0.57,,---,1.51,VWS V14.01,2013-03-12 12:29:00,
2013-03-12 08:30:00,52.3,52.0,29.72,NNW,333,5.0,5.0,99,0.40,,---,1.05,VWS V14.01,2013-03-12 12:30:00,
2013-03-12 08:34:00,52.9,52.9,29.72,WNW,289,2.0,2.0,100,0.59,,---,1.56,VWS V14.01,2013-03-12 12:34:00,
2013-03-12 08:35:00,52.4,52.1,29.72,NNW,327,4.0,7.0,99,0.41,,---,1.09,VWS V14.01,2013-03-12 12:35:00,
2013-03-12 08:39:00,52.9,52.9,29.72,WNW,289,1.0,2.0,100,0.60,,---,1.61,VWS V14.01,2013-03-12 12:39:00,
2013-03-12 08:40:00,52.4,52.1,29.72,NW,323,2.0,6.0,99,0.43,,---,1.13,VWS V14.01,2013-03-12 12:40:00,
2013-03-12 08:44:00,52.9,52.9,29.72,WNW,289,0.0,0.0,100,0.60,,---,1.65,VWS V14.01,2013-03-12 12:44:00,
2013-03-12 08:45:00,52.6,52.3,29.72,WNW,292,2.0,5.0,99,0.45,,---,1.18,VWS V14.01,2013-03-12 12:45:00,
2013-03-12 08:49:00,52.9,52.9,29.72,WNW,289,0.0,1.0,100,0.61,,---,1.70,VWS V14.01,2013-03-12 12:49:00,
2013-03-12 08:50:00,52.7,52.7,29.72,West,281,3.0,7.0,100,0.48,,---,1.23,VWS V14.01,2013-03-12 12:50:00,
2013-03-12 08:54:00,52.9,52.9,29.72,WNW,289,1.0,2.0,100,0.62,,---,1.75,VWS V14.01,2013-03-12 12:54:00,
2013-03-12 08:55:00,52.7,52.7,29.72,WNW,290,1.0,5.0,100,0.49,,---,1.27,VWS V14.01,2013-03-12 12:55:00,
2013-03-12 08:59:00,52.9,52.9,29.71,WNW,289,4.0,4.0,100,0.60,,---,1.78,VWS V14.01,2013-03-12 12:59:00,
2013-03-12 09:00:00,52.9,52.9,29.72,WNW,292,0.0,2.0,100,0.51,,---,1.32,VWS V14.01,2013-03-12 13:00:00,
2013-03-12 09:04:00,53.0,53.0,29.71,NNW,347,2.0,4.0,100,0.58,,---,1.81,VWS V14.01,2013-03-12 13:04:00,
2013-03-12 09:05:00,52.9,52.9,29.72,WNW,289,0.0,2.0,100,0.53,,---,1.37,VWS V14.01,2013-03-12 13:05:00,
2013-03-12 09:09:00,53.2,53.2,29.71,WNW,294,4.0,4.0,100,0.57,,---,1.84,VWS V14.01,2013-03-12 13:09:00,
2013-03-12 09:10:00,52.9,52.9,29.72,WNW,289,0.0,2.0,100,0.56,,---,1.43,VWS V14.01,2013-03-12 13:10:00,
2013-03-12 09:14:00,53.2,53.2,29.72,WNW,290,0.0,0.0,100,0.56,,---,1.88,VWS V14.01,2013-03-12 13:14:00,
2013-03-12 09:15:00,52.9,52.9,29.72,WNW,289,0.0,0.0,100,0.58,,---,1.48,VWS V14.01,2013-03-12 13:15:00,
2013-03-12 09:19:00,53.3,53.3,29.72,WNW,298,1.0,1.0,100,0.55,,---,1.92,VWS V14.01,2013-03-12 13:19:00,
2013-03-12 09:20:00,52.9,52.9,29.72,WNW,289,0.0,0.0,100,0.59,,---,1.53,VWS V14.01,2013-03-12 13:20:00,
2013-03-12 09:24:00,53.3,53.3,29.72,WNW,299,1.0,2.0,100,0.51,,---,1.94,VWS V14.01,2013-03-12 13:24:00,
2013-03-12 09:25:00,52.9,52.9,29.72,WNW,289,0.0,2.0,100,0.61,,---,1.58,VWS V14.01,2013-03-12 13:25:00,
2013-03-12 09:29:00,53.2,53.2,29.70,WNW,299,3.0,3.0,100,0.49,,---,1.97,VWS V14.01,2013-03-12 13:29:00,
2013-03-12 09:30:00,52.9,52.9,29.72,WNW,289,0.0,3.0,100,0.62,,---,1.63,VWS V14.01,2013-03-12 13:30:00,
2013-03-12 09:34:00,53.2,53.2,29.70,WNW,299,0.0,1.0,100,0.47,,---,2.00,VWS V14.01,2013-03-12 13:34:00,
2013-03-12 09:35:00,52.9,52.9,29.72,WNW,289,0.0,0.0,100,0.62,,---,1.67,VWS V14.01,2013-03-12 13:35:00,
2013-03-12 09:39:00,53.3,53.3,29.70,NW,312,0.0,0.0,100,0.44,,---,2.02,VWS V14.01,2013-03-12 13:39:00,
2013-03-12 09:40:00,52.9,52.9,29.72,WNW,289,0.0,1.0,100,0.63,,---,1.72,VWS V14.01,2013-03-12 13:40:00,
2013-03-12 09:44:00,53.5,53.5,29.70,NW,316,0.0,2.0,100,0.40,,---,2.03,VWS V14.01,2013-03-12 13:44:00,
2013-03-12 09:45:00,52.9,52.9,29.71,WNW,289,1.0,2.0,100,0.62,,---,1.75,VWS V14.01,2013-03-12 13:45:00,
2013-03-12 09:49:00,53.6,53.6,29.70,NW,319,0.0,0.0,100,0.36,,---,2.03,VWS V14.01,2013-03-12 13:49:00,
2013-03-12 09:50:00,53.0,53.0,29.71,NNW,347,3.0,4.0,100,0.61,,---,1.79,VWS V14.01,2013-03-12 13:50:00,
2013-03-12 09:54:00,53.6,53.6,29.70,SW,229,3.0,4.0,100,0.31,,---,2.03,VWS V14.01,2013-03-12 13:54:00,
2013-03-12 09:55:00,53.2,53.2,29.71,NNW,327,4.0,4.0,100,0.59,,---,1.82,VWS V14.01,2013-03-12 13:55:00,
2013-03-12 09:59:00,53.9,53.9,29.72,SW,229,2.0,3.0,100,0.28,,---,2.03,VWS V14.01,2013-03-12 13:59:00,
2013-03-12 10:00:00,53.2,53.2,29.72,WNW,290,0.0,4.0,100,0.59,,---,1.86,VWS V14.01,2013-03-12 14:00:00,
2013-03-12 10:04:00,54.2,54.2,29.72,SW,229,3.0,3.0,100,0.24,,---,2.03,VWS V14.01,2013-03-12 14:04:00,
2013-03-12 10:05:00,53.2,53.2,29.72,WNW,290,1.0,1.0,100,0.57,,---,1.89,VWS V14.01,2013-03-12 14:05:00,
2013-03-12 10:09:00,54.4,54.4,29.72,WSW,242,2.0,4.0,100,0.21,,---,2.03,VWS V14.01,2013-03-12 14:09:00,
2013-03-12 10:10:00,53.3,53.3,29.72,WNW,298,1.0,2.0,100,0.56,,---,1.93,VWS V14.01,2013-03-12 14:10:00,
2013-03-12 10:14:00,54.5,54.5,29.72,SSW,202,0.0,1.0,100,0.17,,---,2.03,VWS V14.01,2013-03-12 14:14:00,
2013-03-12 10:15:00,53.3,53.3,29.70,WNW,299,0.0,2.0,100,0.53,,---,1.96,VWS V14.01,2013-03-12 14:15:00,
2013-03-12 10:19:00,54.7,54.7,29.72,SSW,202,3.0,4.0,100,0.14,,---,2.03,VWS V14.01,2013-03-12 14:19:00,
2013-03-12 10:20:00,53.2,53.2,29.70,WNW,299,0.0,3.0,100,0.50,,---,1.98,VWS V14.01,2013-03-12 14:20:00,
2013-03-12 10:24:00,55.0,55.0,29.72,SSW,202,3.0,4.0,100,0.10,,---,2.03,VWS V14.01,2013-03-12 14:24:00,
2013-03-12 10:25:00,53.2,53.2,29.70,WNW,301,0.0,1.0,100,0.47,,---,2.00,VWS V14.01,2013-03-12 14:25:00,
2013-03-12 10:29:00,55.0,55.0,29.73,SSW,202,0.0,2.0,100,0.07,,---,2.03,VWS V14.01,2013-03-12 14:29:00,
2013-03-12 10:30:00,53.3,53.3,29.70,NW,314,0.0,0.0,100,0.44,,---,2.02,VWS V14.01,2013-03-12 14:30:00,
2013-03-12 10:34:00,55.1,55.1,29.73,SSW,202,1.0,1.0,100,0.05,,---,2.03,VWS V14.01,2013-03-12 14:34:00,
2013-03-12 10:35:00,53.5,53.5,29.70,NW,317,0.0,2.0,100,0.40,,---,2.03,VWS V14.01,2013-03-12 14:35:00,
2013-03-12 10:39:00,55.3,55.3,29.73,East,84,1.0,4.0,100,0.03,,---,2.03,VWS V14.01,2013-03-12 14:39:00,
2013-03-12 10:40:00,53.6,53.6,29.70,NW,319,2.0,2.0,100,0.36,,---,2.03,VWS V14.01,2013-03-12 14:40:00,
2013-03-12 10:44:00,55.3,55.3,29.73,WNW,286,6.0,9.0,100,0.01,,---,2.03,VWS V14.01,2013-03-12 14:44:00,
2013-03-12 10:45:00,53.8,53.8,29.72,SW,229,1.0,4.0,100,0.31,,---,2.03,VWS V14.01,2013-03-12 14:45:00,
2013-03-12 10:49:00,54.1,53.8,29.73,WNW,284,10.0,18.0,99,0.00,,---,2.03,VWS V14.01,2013-03-12 14:49:00,
2013-03-12 10:50:00,54.1,54.1,29.72,SW,229,3.0,3.0,100,0.28,,---,2.03,VWS V14.01,2013-03-12 14:50:00,
2013-03-12 10:54:00,53.6,53.6,29.73,WNW,295,5.0,11.0,100,0.00,,---,2.03,VWS V14.01,2013-03-12 14:54:00,
2013-03-12 10:55:00,54.2,54.2,29.72,SW,229,3.0,4.0,100,0.24,,---,2.03,VWS V14.01,2013-03-12 14:55:00,
2013-03-12 10:59:00,53.2,52.9,29.74,NW,307,5.0,14.0,99,0.00,,---,2.03,VWS V14.01,2013-03-12 14:59:00,
2013-03-12 11:00:00,54.4,54.4,29.72,SSW,202,1.0,4.0,100,0.21,,---,2.03,VWS V14.01,2013-03-12 15:00:00,
2013-03-12 11:04:00,53.0,52.7,29.74,North,11,4.0,14.0,99,0.00,,---,2.03,VWS V14.01,2013-03-12 15:04:00,
2013-03-12 11:05:00,54.5,54.5,29.72,SSW,202,1.0,1.0,100,0.17,,---,2.03,VWS V14.01,2013-03-12 15:05:00,
2013-03-12 11:09:00,52.7,52.2,29.74,NW,304,11.0,18.0,98,0.00,,---,2.03,VWS V14.01,2013-03-12 15:09:00,
2013-03-12 11:10:00,54.8,54.8,29.72,SSW,202,3.0,4.0,100,0.14,,---,2.03,VWS V14.01,2013-03-12 15:10:00,
2013-03-12 11:14:00,52.6,51.2,29.75,WNW,303,16.0,20.0,95,0.00,,---,2.03,VWS V14.01,2013-03-12 15:14:00,
2013-03-12 11:15:00,55.0,55.0,29.73,SSW,202,1.0,4.0,100,0.10,,---,2.03,VWS V14.01,2013-03-12 15:15:00,
2013-03-12 11:19:00,52.6,50.0,29.75,NNW,344,18.0,18.0,91,0.00,,---,2.03,VWS V14.01,2013-03-12 15:19:00,
2013-03-12 11:20:00,55.1,55.1,29.73,SSW,202,0.0,2.0,100,0.07,,---,2.03,VWS V14.01,2013-03-12 15:20:00,
2013-03-12 11:24:00,52.4,49.0,29.75,North,355,9.0,20.0,88,0.00,,---,2.03,VWS V14.01,2013-03-12 15:24:00,
2013-03-12 11:25:00,55.1,55.1,29.73,ENE,78,4.0,4.0,100,0.05,,---,2.03,VWS V14.01,2013-03-12 15:25:00,
2013-03-12 11:29:00,52.6,48.5,29.76,NW,304,7.0,25.0,86,0.00,,---,2.03,VWS V14.01,2013-03-12 15:29:00,
2013-03-12 11:30:00,55.3,55.3,29.73,NNW,346,4.0,9.0,100,0.03,,---,2.03,VWS V14.01,2013-03-12 15:30:00,
2013-03-12 11:34:00,53.0,48.6,29.76,North,355,2.0,17.0,85,0.00,,---,2.03,VWS V14.01,2013-03-12 15:34:00,
2013-03-12 11:35:00,54.8,54.8,29.73,WNW,296,9.0,14.0,100,0.01,,---,2.03,VWS V14.01,2013-03-12 15:35:00,
2013-03-12 11:39:00,53.8,48.8,29.76,WNW,300,11.0,21.0,83,0.00,,---,2.03,VWS V14.01,2013-03-12 15:39:00,
2013-03-12 11:40:00,53.8,53.5,29.73,NNW,327,8.0,18.0,99,0.00,,---,2.03,VWS V14.01,2013-03-12 15:40:00,
2013-03-12 11:44:00,53.6,47.9,29.75,NW,313,11.0,14.0,81,0.00,,---,2.03,VWS V14.01,2013-03-12 15:44:00,
2013-03-12 11:45:00,53.5,53.2,29.74,WNW,290,13.0,14.0,99,0.00,,---,2.03,VWS V14.01,2013-03-12 15:45:00,
2013-03-12 11:49:00,53.5,47.5,29.75,WNW,294,8.0,15.0,80,0.00,,---,2.03,VWS V14.01,2013-03-12 15:49:00,
2013-03-12 11:50:00,53.2,52.9,29.74,WNW,301,4.0,14.0,99,0.00,,---,2.03,VWS V14.01,2013-03-12 15:50:00,
2013-03-12 11:54:00,53.0,47.0,29.75,WNW,300,13.0,17.0,80,0.00,,---,2.03,VWS V14.01,2013-03-12 15:54:00,
2013-03-12 11:55:00,52.9,52.9,29.74,North,5,7.0,16.0,100,0.00,,---,2.03,VWS V14.01,2013-03-12 15:55:00,
2013-03-12 11:59:00,52.7,46.7,29.78,West,271,11.0,19.0,80,0.00,,---,2.03,VWS V14.01,2013-03-12 15:59:00,
2013-03-12 12:00:00,52.7,51.9,29.75,NW,304,12.0,18.0,97,0.00,,---,2.03,VWS V14.01,2013-03-12 16:00:00,
2013-03-12 12:04:00,52.6,46.6,29.78,West,262,6.0,18.0,80,0.00,,---,2.03,VWS V14.01,2013-03-12 16:04:00,
2013-03-12 12:05:00,52.6,50.6,29.75,NNW,330,6.0,24.0,93,0.00,,---,2.03,VWS V14.01,2013-03-12 16:05:00,
2013-03-12 12:09:00,52.4,46.8,29.78,NW,306,15.0,20.0,81,0.00,,---,2.03,VWS V14.01,2013-03-12 16:09:00,
2013-03-12 12:10:00,52.4,49.6,29.75,North,355,5.0,26.0,90,0.00,,---,2.03,VWS V14.01,2013-03-12 16:10:00,
2013-03-12 12:14:00,52.3,46.3,29.77,NW,313,10.0,17.0,80,0.00,,---,2.03,VWS V14.01,2013-03-12 16:14:00,
2013-03-12 12:15:00,52.4,48.7,29.76,West,275,12.0,22.0,87,0.00,,---,2.03,VWS V14.01,2013-03-12 16:15:00,
2013-03-12 12:19:00,52.3,46.3,29.77,WNW,302,3.0,17.0,80,0.00,,---,2.03,VWS V14.01,2013-03-12 16:19:00,
2013-03-12 12:20:00,52.7,49.0,29.76,NW,320,16.0,25.0,87,0.00,,---,2.03,VWS V14.01,2013-03-12 16:20:00,
2013-03-12 12:24:00,52.3,46.7,29.77,North,351,0.0,9.0,81,0.00,,---,2.03,VWS V14.01,2013-03-12 16:24:00,
2013-03-12 12:25:00,53.5,49.4,29.76,West,263,2.0,17.0,86,0.00,,---,2.03,VWS V14.01,2013-03-12 16:25:00,
2013-03-12 12:29:00,53.0,47.3,29.77,NW,326,6.0,9.0,81,0.00,,---,2.03,VWS V14.01,2013-03-12 16:29:00,
2013-03-12 12:30:00,53.6,47.9,29.75,SSW,196,6.0,21.0,81,0.00,,---,2.03,VWS V14.01,2013-03-12 16:30:00,
2013-03-12 12:34:00,53.9,47.5,29.77,WNW,285,10.0,17.0,79,0.00,,---,2.03,VWS V14.01,2013-03-12 16:34:00,
2013-03-12 12:35:00,53.6,47.6,29.75,WSW,244,7.0,15.0,80,0.00,,---,2.03,VWS V14.01,2013-03-12 16:35:00,
2013-03-12 12:39:00,54.2,47.2,29.77,WNW,300,19.0,19.0,77,0.00,,---,2.03,VWS V14.01,2013-03-12 16:39:00,
2013-03-12 12:40:00,53.3,47.3,29.75,NNW,338,10.0,22.0,80,0.00,,---,2.03,VWS V14.01,2013-03-12 16:40:00,
2013-03-12 12:44:00,54.4,47.0,29.77,West,262,6.0,16.0,76,0.00,,---,2.03,VWS V14.01,2013-03-12 16:44:00,
2013-03-12 12:45:00,53.0,47.3,29.78,NW,312,15.0,17.0,81,0.00,,---,2.03,VWS V14.01,2013-03-12 16:45:00,
2013-03-12 12:49:00,54.7,46.9,29.77,North,355,1.0,14.0,75,0.00,,---,2.03,VWS V14.01,2013-03-12 16:49:00,
2013-03-12 12:50:00,52.7,46.7,29.78,West,263,15.0,19.0,80,0.00,,---,2.03,VWS V14.01,2013-03-12 16:50:00,
2013-03-12 12:54:00,55.1,47.7,29.77,NNW,331,12.0,13.0,76,0.00,,---,2.03,VWS V14.01,2013-03-12 16:54:00,
2013-03-12 12:55:00,52.4,46.4,29.78,WNW,286,9.0,18.0,80,0.00,,---,2.03,VWS V14.01,2013-03-12 16:55:00,
2013-03-12 12:59:00,55.6,47.8,29.77,NNW,330,3.0,11.0,75,0.00,,---,2.03,VWS V14.01,2013-03-12 16:59:00,
2013-03-12 13:00:00,52.4,46.4,29.77,NW,309,3.0,20.0,80,0.00,,---,2.03,VWS V14.01,2013-03-12 17:00:00,
2013-03-12 13:04:00,56.3,47.8,29.77,NNW,339,14.0,14.0,73,0.00,,---,2.03,VWS V14.01,2013-03-12 17:04:00,
2013-03-12 13:05:00,52.3,46.3,29.77,West,275,4.0,17.0,80,0.00,,---,2.03,VWS V14.01,2013-03-12 17:05:00,
2013-03-12 13:09:00,56.6,48.4,29.77,NW,321,12.0,12.0,74,0.00,,---,2.03,VWS V14.01,2013-03-12 17:09:00,
2013-03-12 13:10:00,52.3,46.3,29.77,West,261,9.0,17.0,80,0.00,,---,2.03,VWS V14.01,2013-03-12 17:10:00,
2013-03-12 13:14:00,56.9,47.2,29.76,WNW,289,10.0,14.0,70,0.00,,---,2.03,VWS V14.01,2013-03-12 17:14:00,
2013-03-12 13:15:00,52.6,47.3,29.77,North,360,4.0,12.0,82,0.00,,---,2.03,VWS V14.01,2013-03-12 17:15:00,
2013-03-12 13:19:00,57.2,47.9,29.76,NW,309,10.0,11.0,71,0.00,,---,2.03,VWS V14.01,2013-03-12 17:19:00,
2013-03-12 13:20:00,53.3,47.6,29.77,NNE,31,2.0,11.0,81,0.00,,---,2.03,VWS V14.01,2013-03-12 17:20:00,
2013-03-12 13:24:00,57.7,48.0,29.76,NW,313,10.0,11.0,70,0.00,,---,2.03,VWS V14.01,2013-03-12 17:24:00,
2013-03-12 13:25:00,54.1,47.4,29.77,West,271,14.0,17.0,78,0.00,,---,2.03,VWS V14.01,2013-03-12 17:25:00,
2013-03-12 13:29:00,58.0,48.3,29.76,SW,223,5.0,10.0,70,0.00,,---,2.03,VWS V14.01,2013-03-12 17:29:00,
2013-03-12 13:30:00,54.4,47.0,29.77,West,269,3.0,19.0,76,0.00,,---,2.03,VWS V14.01,2013-03-12 17:30:00,
2013-03-12 13:34:00,58.1,48.0,29.76,ESE,112,3.0,11.0,69,0.00,,---,2.03,VWS V14.01,2013-03-12 17:34:00,
2013-03-12 13:35:00,54.5,47.1,29.77,NW,308,9.0,16.0,76,0.00,,---,2.03,VWS V14.01,2013-03-12 17:35:00,
2013-03-12 13:39:00,58.4,48.7,29.76,West,261,7.0,7.0,70,0.00,,---,2.03,VWS V14.01,2013-03-12 17:39:00,
2013-03-12 13:40:00,54.8,47.4,29.77,North,355,9.0,14.0,76,0.00,,---,2.03,VWS V14.01,2013-03-12 17:40:00,
2013-03-12 13:44:00,58.6,48.1,29.76,NNW,340,8.0,11.0,68,0.00,,---,2.03,VWS V14.01,2013-03-12 17:44:00,
2013-03-12 13:45:00,55.1,47.3,29.77,North,360,3.0,13.0,75,0.00,,---,2.03,VWS V14.01,2013-03-12 17:45:00,
2013-03-12 13:49:00,58.9,48.0,29.76,NNE,33,4.0,11.0,67,0.00,,---,2.03,VWS V14.01,2013-03-12 17:49:00,
2013-03-12 13:50:00,55.8,48.0,29.77,West,271,4.0,11.0,75,0.00,,---,2.03,VWS V14.01,2013-03-12 17:50:00,
2013-03-12 13:54:00,58.6,47.3,29.76,NNE,17,9.0,17.0,66,0.00,,---,2.03,VWS V14.01,2013-03-12 17:54:00,
2013-03-12 13:55:00,56.3,47.8,29.77,NNW,340,6.0,14.0,73,0.00,,---,2.03,VWS V14.01,2013-03-12 17:55:00,
2013-03-12 13:59:00,58.0,47.5,29.76,North,349,5.0,12.0,68,0.00,,---,2.03,VWS V14.01,2013-03-12 17:59:00,
2013-03-12 14:00:00,56.7,48.5,29.76,NW,313,5.0,12.0,74,0.00,,---,2.03,VWS V14.01,2013-03-12 18:00:00,
2013-03-12 14:04:00,58.3,48.6,29.76,NW,317,8.0,9.0,70,0.00,,---,2.03,VWS V14.01,2013-03-12 18:04:00,
2013-03-12 14:05:00,57.1,47.8,29.76,WNW,301,7.0,14.0,71,0.00,,---,2.03,VWS V14.01,2013-03-12 18:05:00,
2013-03-12 14:09:00,58.7,47.4,29.76,North,5,4.0,9.0,66,0.00,,---,2.03,VWS V14.01,2013-03-12 18:09:00,
2013-03-12 14:10:00,57.4,48.8,29.76,NW,317,1.0,11.0,73,0.00,,---,2.03,VWS V14.01,2013-03-12 18:10:00,
2013-03-12 14:14:00,58.9,47.6,29.76,North,355,3.0,6.0,66,0.00,,---,2.03,VWS V14.01,2013-03-12 18:14:00,
2013-03-12 14:15:00,57.7,47.6,29.76,WNW,302,6.0,11.0,69,0.00,,---,2.03,VWS V14.01,2013-03-12 18:15:00,
2013-03-12 14:19:00,59.0,47.3,29.76,North,9,6.0,7.0,65,0.00,,---,2.03,VWS V14.01,2013-03-12 18:19:00,
2013-03-12 14:20:00,58.1,48.0,29.76,WNW,301,6.0,13.0,69,0.00,,---,2.03,VWS V14.01,2013-03-12 18:20:00,
2013-03-12 14:24:00,58.9,45.9,29.76,NNW,337,4.0,10.0,62,0.00,,---,2.03,VWS V14.01,2013-03-12 18:24:00,
2013-03-12 14:25:00,58.1,48.0,29.76,ENE,67,0.0,11.0,69,0.00,,---,2.03,VWS V14.01,2013-03-12 18:25:00,
2013-03-12 14:29:00,59.0,46.0,29.75,WNW,283,6.0,13.0,62,0.00,,---,2.03,VWS V14.01,2013-03-12 18:29:00,
2013-03-12 14:30:00,58.4,47.5,29.76,NNW,338,10.0,12.0,67,0.00,,---,2.03,VWS V14.01,2013-03-12 18:30:00,
2013-03-12 14:34:00,59.2,45.3,29.75,NW,313,9.0,18.0,60,0.00,,---,2.03,VWS V14.01,2013-03-12 18:34:00,
2013-03-12 14:35:00,58.7,48.6,29.76,West,275,6.0,11.0,69,0.00,,---,2.03,VWS V14.01,2013-03-12 18:35:00,
2013-03-12 14:39:00,59.2,44.5,29.75,NW,314,14.0,17.0,58,0.00,,---,2.03,VWS V14.01,2013-03-12 18:39:00,
2013-03-12 14:40:00,58.9,48.4,29.76,NW,311,2.0,11.0,68,0.00,,---,2.03,VWS V14.01,2013-03-12 18:40:00,
2013-03-12 14:44:00,59.3,45.0,29.75,NW,309,13.0,15.0,59,0.00,,---,2.03,VWS V14.01,2013-03-12 18:44:00,
2013-03-12 14:45:00,58.3,47.0,29.76,NNE,17,5.0,17.0,66,0.00,,---,2.03,VWS V14.01,2013-03-12 18:45:00,
2013-03-12 14:49:00,59.2,44.5,29.75,NE,44,2.0,10.0,58,0.00,,---,2.03,VWS V14.01,2013-03-12 18:49:00,
2013-03-12 14:50:00,58.0,47.9,29.76,NNE,21,4.0,12.0,69,0.00,,---,2.03,VWS V14.01,2013-03-12 18:50:00,
2013-03-12 14:54:00,59.3,45.9,29.75,West,273,0.0,6.0,61,0.00,,---,2.03,VWS V14.01,2013-03-12 18:54:00,
2013-03-12 14:55:00,58.4,47.5,29.76,NNW,328,4.0,9.0,67,0.00,,---,2.03,VWS V14.01,2013-03-12 18:55:00,
2013-03-12 14:59:00,59.0,44.7,29.76,NW,307,6.0,15.0,59,0.00,,---,2.03,VWS V14.01,2013-03-12 18:59:00,
2013-03-12 15:00:00,58.7,47.4,29.76,NNE,28,5.0,11.0,66,0.00,,---,2.03,VWS V14.01,2013-03-12 19:00:00,
2013-03-12 15:04:00,58.7,44.4,29.76,NW,308,5.0,11.0,59,0.00,,---,2.03,VWS V14.01,2013-03-12 19:04:00,
2013-03-12 15:05:00,58.9,47.2,29.76,NNW,334,1.0,6.0,65,0.00,,---,2.03,VWS V14.01,2013-03-12 19:05:00,
2013-03-12 15:09:00,58.4,45.0,29.76,SW,231,3.0,14.0,61,0.00,,---,2.03,VWS V14.01,2013-03-12 19:09:00,
2013-03-12 15:10:00,59.0,46.4,29.76,NE,37,5.0,9.0,63,0.00,,---,2.03,VWS V14.01,2013-03-12 19:10:00,
2013-03-12 15:14:00,58.0,44.6,29.76,WNW,303,4.0,10.0,61,0.00,,---,2.03,VWS V14.01,2013-03-12 19:14:00,
2013-03-12 15:15:00,58.9,45.9,29.75,NNW,331,6.0,12.0,62,0.00,,---,2.03,VWS V14.01,2013-03-12 19:15:00,
2013-03-12 15:19:00,57.5,44.6,29.76,North,350,5.0,15.0,62,0.00,,---,2.03,VWS V14.01,2013-03-12 19:19:00,
2013-03-12 15:20:00,59.0,45.2,29.75,NW,315,11.0,13.0,60,0.00,,---,2.03,VWS V14.01,2013-03-12 19:20:00,
2013-03-12 15:24:00,57.5,44.6,29.76,NNW,339,4.0,9.0,62,0.00,,---,2.03,VWS V14.01,2013-03-12 19:24:00,
2013-03-12 15:25:00,59.2,45.3,29.75,WSW,258,11.0,18.0,60,0.00,,---,2.03,VWS V14.01,2013-03-12 19:25:00,
2013-03-12 15:29:00,57.5,44.2,29.76,NNW,331,0.0,11.0,61,0.00,,---,2.03,VWS V14.01,2013-03-12 19:29:00,
2013-03-12 15:30:00,59.2,45.3,29.75,NNW,338,6.0,17.0,60,0.00,,---,2.03,VWS V14.01,2013-03-12 19:30:00,
2013-03-12 15:34:00,57.7,43.9,29.76,West,278,9.0,12.0,60,0.00,,---,2.03,VWS V14.01,2013-03-12 19:34:00,
2013-03-12 15:35:00,59.3,45.0,29.75,NNW,336,9.0,15.0,59,0.00,,---,2.03,VWS V14.01,2013-03-12 19:35:00,
2013-03-12 15:39:00,57.8,44.0,29.76,NNW,341,3.0,12.0,60,0.00,,---,2.03,VWS V14.01,2013-03-12 19:39:00,
2013-03-12 15:40:00,59.3,45.9,29.75,ENE,65,0.0,14.0,61,0.00,,---,2.03,VWS V14.01,2013-03-12 19:40:00,
2013-03-12 15:44:00,58.1,44.3,29.76,West,279,0.0,10.0,60,0.00,,---,2.03,VWS V14.01,2013-03-12 19:44:00,
2013-03-12 15:45:00,59.2,44.9,29.76,WNW,292,3.0,6.0,59,0.00,,---,2.03,VWS V14.01,2013-03-12 19:45:00,
2013-03-12 15:49:00,58.4,44.1,29.76,ESE,111,7.0,8.0,59,0.00,,---,2.03,VWS V14.01,2013-03-12 19:49:00,
2013-03-12 15:50:00,58.9,45.1,29.76,West,261,10.0,15.0,60,0.00,,---,2.03,VWS V14.01,2013-03-12 19:50:00,
2013-03-12 15:54:00,58.3,44.5,29.76,NW,313,6.0,10.0,60,0.00,,---,2.03,VWS V14.01,2013-03-12 19:54:00,
2013-03-12 15:55:00,58.7,44.9,29.76,NW,319,9.0,11.0,60,0.00,,---,2.03,VWS V14.01,2013-03-12 19:55:00,
2013-03-12 15:59:00,58.3,44.0,29.76,WSW,238,9.0,9.0,59,0.00,,---,2.03,VWS V14.01,2013-03-12 19:59:00,
2013-03-12 16:00:00,58.1,44.3,29.76,WNW,297,7.0,14.0,60,0.00,,---,2.03,VWS V14.01,2013-03-12 20:00:00,
2013-03-12 16:04:00,58.3,43.2,29.76,SW,217,5.0,12.0,57,0.00,,---,2.03,VWS V14.01,2013-03-12 20:04:00,
2013-03-12 16:05:00,58.0,45.1,29.76,NNW,342,11.0,13.0,62,0.00,,---,2.03,VWS V14.01,2013-03-12 20:05:00,
2013-03-12 16:09:00,58.3,43.2,29.76,West,262,2.0,13.0,57,0.00,,---,2.03,VWS V14.01,2013-03-12 20:09:00,
2013-03-12 16:10:00,57.5,45.4,29.76,NW,319,4.0,15.0,64,0.00,,---,2.03,VWS V14.01,2013-03-12 20:10:00,
2013-03-12 16:14:00,58.7,44.0,29.77,WNW,293,16.0,17.0,58,0.00,,---,2.03,VWS V14.01,2013-03-12 20:14:00,
2013-03-12 16:15:00,57.5,45.4,29.76,NW,324,0.0,9.0,64,0.00,,---,2.03,VWS V14.01,2013-03-12 20:15:00,
2013-03-12 16:19:00,58.3,42.7,29.77,NNW,340,7.0,17.0,56,0.00,,---,2.03,VWS V14.01,2013-03-12 20:19:00,
2013-03-12 16:20:00,57.5,44.2,29.76,WNW,293,7.0,11.0,61,0.00,,---,2.03,VWS V14.01,2013-03-12 20:20:00,
2013-03-12 16:24:00,57.8,43.1,29.77,NNE,15,1.0,12.0,58,0.00,,---,2.03,VWS V14.01,2013-03-12 20:24:00,
2013-03-12 16:25:00,57.7,43.9,29.76,WNW,292,4.0,12.0,60,0.00,,---,2.03,VWS V14.01,2013-03-12 20:25:00,
2013-03-12 16:29:00,58.0,44.2,29.78,NNW,337,1.0,7.0,60,0.00,,---,2.03,VWS V14.01,2013-03-12 20:29:00,
2013-03-12 16:30:00,58.0,44.2,29.76,WNW,282,5.0,12.0,60,0.00,,---,2.03,VWS V14.01,2013-03-12 20:30:00,
2013-03-12 16:34:00,58.1,43.0,29.78,North,9,5.0,5.0,57,0.00,,---,2.03,VWS V14.01,2013-03-12 20:34:00,
2013-03-12 16:35:00,58.3,44.9,29.76,SW,234,1.0,10.0,61,0.00,,---,2.03,VWS V14.01,2013-03-12 20:35:00,
2013-03-12 16:39:00,58.3,42.7,29.78,NE,36,4.0,14.0,56,0.00,,---,2.03,VWS V14.01,2013-03-12 20:39:00,
2013-03-12 16:40:00,58.4,44.6,29.76,NNW,328,6.0,10.0,60,0.00,,---,2.03,VWS V14.01,2013-03-12 20:40:00,
2013-03-12 16:44:00,58.4,42.3,29.78,NNW,329,6.0,13.0,55,0.00,,---,2.03,VWS V14.01,2013-03-12 20:44:00,
2013-03-12 16:45:00,58.3,43.6,29.76,NNW,343,5.0,10.0,58,0.00,,---,2.03,VWS V14.01,2013-03-12 20:45:00,
2013-03-12 16:49:00,58.6,43.0,29.78,North,355,6.0,12.0,56,0.00,,---,2.03,VWS V14.01,2013-03-12 20:49:00,
2013-03-12 16:50:00,58.3,44.5,29.76,West,271,9.0,17.0,60,0.00,,---,2.03,VWS V14.01,2013-03-12 20:50:00,
2013-03-12 16:54:00,58.6,43.0,29.78,NNE,30,7.0,10.0,56,0.00,,---,2.03,VWS V14.01,2013-03-12 20:54:00,
2013-03-12 16:55:00,58.1,42.5,29.76,West,280,4.0,12.0,56,0.00,,---,2.03,VWS V14.01,2013-03-12 20:55:00,
2013-03-12 16:59:00,58.4,42.3,29.78,NNW,329,6.0,12.0,55,0.00,,---,2.03,VWS V14.01,2013-03-12 20:59:00,
2013-03-12 17:00:00,58.6,43.4,29.77,NNE,13,6.0,13.0,57,0.00,,---,2.03,VWS V14.01,2013-03-12 21:00:00,
2013-03-12 17:04:00,58.1,41.6,29.78,NNW,334,3.0,13.0,54,0.00,,---,2.03,VWS V14.01,2013-03-12 21:04:00,
2013-03-12 17:05:00,58.6,43.0,29.77,NNE,26,10.0,17.0,56,0.00,,---,2.03,VWS V14.01,2013-03-12 21:05:00,
2013-03-12 17:09:00,58.3,40.8,29.78,NW,323,5.0,10.0,52,0.00,,---,2.03,VWS V14.01,2013-03-12 21:09:00,
2013-03-12 17:10:00,58.1,42.5,29.77,North,355,11.0,17.0,56,0.00,,---,2.03,VWS V14.01,2013-03-12 21:10:00,
2013-03-12 17:14:00,58.3,39.8,29.79,West,275,3.0,9.0,50,0.00,,---,2.03,VWS V14.01,2013-03-12 21:14:00,
2013-03-12 17:15:00,57.8,43.1,29.78,NNE,30,3.0,12.0,58,0.00,,---,2.03,VWS V14.01,2013-03-12 21:15:00,
2013-03-12 17:19:00,58.3,39.8,29.79,West,273,8.0,16.0,50,0.00,,---,2.03,VWS V14.01,2013-03-12 21:19:00,
2013-03-12 17:20:00,58.0,43.3,29.78,NE,36,1.0,7.0,58,0.00,,---,2.03,VWS V14.01,2013-03-12 21:20:00,
2013-03-12 17:24:00,58.3,39.8,29.79,WNW,283,4.0,14.0,50,0.00,,---,2.03,VWS V14.01,2013-03-12 21:24:00,
2013-03-12 17:25:00,58.1,43.0,29.78,NNE,32,9.0,10.0,57,0.00,,---,2.03,VWS V14.01,2013-03-12 21:25:00,
2013-03-12 17:29:00,58.4,39.3,29.79,NW,321,6.0,11.0,49,0.00,,---,2.03,VWS V14.01,2013-03-12 21:29:00,
2013-03-12 17:30:00,58.4,43.2,29.78,North,9,6.0,14.0,57,0.00,,---,2.03,VWS V14.01,2013-03-12 21:30:00,
2013-03-12 17:34:00,58.3,39.2,29.79,NNE,22,5.0,10.0,49,0.00,,---,2.03,VWS V14.01,2013-03-12 21:34:00,
2013-03-12 17:35:00,58.6,42.5,29.78,NW,324,9.0,13.0,55,0.00,,---,2.03,VWS V14.01,2013-03-12 21:35:00,
2013-03-12 17:39:00,58.0,39.0,29.79,NNW,342,1.0,12.0,49,0.00,,---,2.03,VWS V14.01,2013-03-12 21:39:00,
2013-03-12 17:40:00,58.6,43.4,29.78,WNW,296,4.0,12.0,57,0.00,,---,2.03,VWS V14.01,2013-03-12 21:40:00,
2013-03-12 17:44:00,58.0,39.5,29.80,NW,306,7.0,7.0,50,0.00,,---,2.03,VWS V14.01,2013-03-12 21:44:00,
2013-03-12 17:45:00,58.6,42.5,29.78,North,11,9.0,11.0,55,0.00,,---,2.03,VWS V14.01,2013-03-12 21:45:00,
2013-03-12 17:49:00,57.7,39.2,29.80,North,11,3.0,10.0,50,0.00,,---,2.03,VWS V14.01,2013-03-12 21:49:00,
2013-03-12 17:50:00,58.3,41.7,29.78,NNE,14,4.0,12.0,54,0.00,,---,2.03,VWS V14.01,2013-03-12 21:50:00,
2013-03-12 17:54:00,57.2,38.2,29.80,North,350,7.0,12.0,49,0.00,,---,2.03,VWS V14.01,2013-03-12 21:54:00,
2013-03-12 17:55:00,58.1,41.6,29.78,NNW,331,5.0,13.0,54,0.00,,---,2.03,VWS V14.01,2013-03-12 21:55:00,
2013-03-12 17:59:00,57.1,37.6,29.80,NNW,337,4.0,10.0,48,0.00,,---,2.03,VWS V14.01,2013-03-12 21:59:00,
2013-03-12 18:00:00,58.3,40.8,29.79,NW,318,5.0,11.0,52,0.00,,---,2.03,VWS V14.01,2013-03-12 22:00:00,
2013-03-12 18:04:00,56.9,38.0,29.80,North,360,4.0,11.0,49,0.00,,---,2.03,VWS V14.01,2013-03-12 22:04:00,
2013-03-12 18:05:00,58.3,39.8,29.79,NW,318,7.0,9.0,50,0.00,,---,2.03,VWS V14.01,2013-03-12 22:05:00,
2013-03-12 18:09:00,56.7,36.7,29.80,North,351,6.0,10.0,47,0.00,,---,2.03,VWS V14.01,2013-03-12 22:09:00,
2013-03-12 18:10:00,58.3,39.8,29.79,WNW,296,9.0,16.0,50,0.00,,---,2.03,VWS V14.01,2013-03-12 22:10:00,
2013-03-12 18:14:00,56.4,36.4,29.81,North,360,11.0,15.0,47,0.00,,---,2.03,VWS V14.01,2013-03-12 22:14:00,
2013-03-12 18:15:00,58.4,39.8,29.79,WNW,293,4.0,14.0,50,0.00,,---,2.03,VWS V14.01,2013-03-12 22:15:00,
2013-03-12 18:19:00,56.1,36.2,29.81,WNW,286,2.0,11.0,47,0.00,,---,2.03,VWS V14.01,2013-03-12 22:19:00,
2013-03-12 18:20:00,58.4,39.3,29.79,WNW,286,10.0,11.0,49,0.00,,---,2.03,VWS V14.01,2013-03-12 22:20:00,
2013-03-12 18:24:00,55.8,36.4,29.81,North,5,3.0,8.0,48,0.00,,---,2.03,VWS V14.01,2013-03-12 22:24:00,
2013-03-12 18:25:00,58.1,39.1,29.79,NNE,32,10.0,10.0,49,0.00,,---,2.03,VWS V14.01,2013-03-12 22:25:00,
2013-03-12 18:29:00,55.7,35.3,29.83,NW,320,5.0,13.0,46,0.00,,---,2.03,VWS V14.01,2013-03-12 22:29:00,
2013-03-12 18:30:00,58.0,39.5,29.80,NW,313,7.0,12.0,50,0.00,,---,2.03,VWS V14.01,2013-03-12 22:30:00,
2013-03-12 18:34:00,55.3,35.4,29.83,NNE,25,6.0,10.0,47,0.00,,---,2.03,VWS V14.01,2013-03-12 22:34:00,
2013-03-12 18:35:00,58.0,39.0,29.80,NE,50,7.0,8.0,49,0.00,,---,2.03,VWS V14.01,2013-03-12 22:35:00,
2013-03-12 18:39:00,54.4,34.6,29.83,NNW,338,4.0,11.0,47,0.00,,---,2.03,VWS V14.01,2013-03-12 22:39:00,
2013-03-12 18:40:00,57.5,38.0,29.80,North,349,11.0,12.0,48,0.00,,---,2.03,VWS V14.01,2013-03-12 22:40:00,
2013-03-12 18:44:00,53.8,34.6,29.83,NNW,337,3.0,7.0,48,0.00,,---,2.03,VWS V14.01,2013-03-12 22:44:00,
2013-03-12 18:45:00,57.2,37.7,29.80,North,9,5.0,12.0,48,0.00,,---,2.03,VWS V14.01,2013-03-12 22:45:00,
2013-03-12 18:49:00,53.5,34.8,29.83,ENE,72,5.0,13.0,49,0.00,,---,2.03,VWS V14.01,2013-03-12 22:49:00,
2013-03-12 18:50:00,57.1,38.7,29.80,NNW,347,9.0,10.0,50,0.00,,---,2.03,VWS V14.01,2013-03-12 22:50:00,
2013-03-12 18:54:00,53.0,34.9,29.83,West,278,6.0,7.0,50,0.00,,---,2.03,VWS V14.01,2013-03-12 22:54:00,
2013-03-12 18:55:00,56.7,37.2,29.80,NNW,333,10.0,13.0,48,0.00,,---,2.03,VWS V14.01,2013-03-12 22:55:00,
2013-03-12 18:59:00,52.9,34.3,29.83,WSW,257,4.0,6.0,49,0.00,,---,2.03,VWS V14.01,2013-03-12 22:59:00,
2013-03-12 19:00:00,56.6,37.2,29.81,NNW,340,4.0,10.0,48,0.00,,---,2.03,VWS V14.01,2013-03-12 23:00:00,
2013-03-12 19:04:00,52.6,34.0,29.83,WNW,298,2.0,4.0,49,0.00,,---,2.03,VWS V14.01,2013-03-12 23:04:00,
2013-03-12 19:05:00,56.3,36.3,29.81,NW,325,11.0,15.0,47,0.00,,---,2.03,VWS V14.01,2013-03-12 23:05:00,
2013-03-12 19:09:00,52.2,33.1,29.83,NW,319,3.0,14.0,48,0.00,,---,2.03,VWS V14.01,2013-03-12 23:09:00,
2013-03-12 19:10:00,56.0,36.6,29.81,NW,311,2.0,11.0,48,0.00,,---,2.03,VWS V14.01,2013-03-12 23:10:00,
2013-03-12 19:14:00,51.9,33.4,29.85,North,5,0.0,12.0,49,0.00,,---,2.03,VWS V14.01,2013-03-12 23:14:00,
2013-03-12 19:15:00,55.8,35.9,29.83,WNW,295,1.0,8.0,47,0.00,,---,2.03,VWS V14.01,2013-03-12 23:15:00,
2013-03-12 19:19:00,51.7,33.2,29.85,NW,305,2.0,10.0,49,0.00,,---,2.03,VWS V14.01,2013-03-12 23:19:00,
2013-03-12 19:20:00,55.6,35.7,29.83,North,5,5.0,13.0,47,0.00,,---,2.03,VWS V14.01,2013-03-12 23:20:00,
2013-03-12 19:24:00,51.4,32.9,29.85,North,360,6.0,11.0,49,0.00,,---,2.03,VWS V14.01,2013-03-12 23:24:00,
2013-03-12 19:25:00,54.8,36.0,29.83,NNE,23,10.0,12.0,49,0.00,,---,2.03,VWS V14.01,2013-03-12 23:25:00,
2013-03-12 19:29:00,51.1,33.6,29.85,West,275,4.0,7.0,51,0.00,,---,2.03,VWS V14.01,2013-03-12 23:29:00,
2013-03-12 19:30:00,54.1,34.3,29.83,North,355,7.0,16.0,47,0.00,,---,2.03,VWS V14.01,2013-03-12 23:30:00,
2013-03-12 19:34:00,50.7,33.2,29.85,NW,320,6.0,13.0,51,0.00,,---,2.03,VWS V14.01,2013-03-12 23:34:00,
2013-03-12 19:35:00,53.6,34.4,29.83,NE,36,0.0,7.0,48,0.00,,---,2.03,VWS V14.01,2013-03-12 23:35:00,
2013-03-12 19:39:00,50.1,32.7,29.85,NNW,341,7.0,16.0,51,0.00,,---,2.03,VWS V14.01,2013-03-12 23:39:00,
2013-03-12 19:40:00,53.3,33.6,29.83,East,92,4.0,13.0,47,0.00,,---,2.03,VWS V14.01,2013-03-12 23:40:00,
2013-03-12 19:44:00,49.8,32.4,29.87,NW,319,8.0,12.0,51,0.00,,---,2.03,VWS V14.01,2013-03-12 23:44:00,
2013-03-12 19:45:00,52.9,33.8,29.83,West,265,5.0,9.0,48,0.00,,---,2.03,VWS V14.01,2013-03-12 23:45:00,
2013-03-12 19:49:00,49.6,32.2,29.87,West,270,5.0,12.0,51,0.00,,---,2.03,VWS V14.01,2013-03-12 23:49:00,
2013-03-12 19:50:00,52.7,33.6,29.83,NW,317,4.0,7.0,48,0.00,,---,2.03,VWS V14.01,2013-03-12 23:50:00,
2013-03-12 19:54:00,49.3,32.4,29.87,WNW,284,2.0,3.0,52,0.00,,---,2.03,VWS V14.01,2013-03-12 23:54:00,
2013-03-12 19:55:00,52.4,34.8,29.83,NNE,14,9.0,12.0,51,0.00,,---,2.03,VWS V14.01,2013-03-12 23:55:00,
2013-03-12 19:59:00,49.0,32.2,29.88,NNW,347,1.0,7.0,52,0.00,,---,2.03,VWS V14.01,2013-03-12 23:59:00,
2013-03-12 20:00:00,52.0,33.5,29.85,NNE,22,12.0,15.0,49,0.00,,---,2.03,VWS V14.01,2013-03-13 00:00:00,
2013-03-12 20:04:00,48.7,31.4,29.88,NE,46,3.0,15.0,51,0.00,,---,2.03,VWS V14.01,2013-03-13 00:04:00,
2013-03-12 20:05:00,51.9,33.4,29.85,NW,322,10.0,12.0,49,0.00,,---,2.03,VWS V14.01,2013-03-13 00:05:00,
2013-03-12 20:09:00,48.3,31.0,29.88,NNW,329,10.0,22.0,51,0.00,,---,2.03,VWS V14.01,2013-03-13 00:09:00,
2013-03-12 20:10:00,51.6,33.1,29.85,NNW,331,6.0,10.0,49,0.00,,---,2.03,VWS V14.01,2013-03-13 00:10:00,
2013-03-12 20:14:00,48.2,30.9,29.88,NW,314,9.0,17.0,51,0.00,,---,2.03,VWS V14.01,2013-03-13 00:14:00,
2013-03-12 20:15:00,51.3,33.3,29.85,WNW,290,3.0,11.0,50,0.00,,---,2.03,VWS V14.01,2013-03-13 00:15:00,
2013-03-12 20:19:00,47.9,30.2,29.88,WSW,254,13.0,19.0,50,0.00,,---,2.03,VWS V14.01,2013-03-13 00:19:00,
2013-03-12 20:20:00,50.8,33.3,29.85,North,350,5.0,8.0,51,0.00,,---,2.03,VWS V14.01,2013-03-13 00:20:00,
2013-03-12 20:24:00,47.9,30.2,29.88,West,259,4.0,13.0,50,0.00,,---,2.03,VWS V14.01,2013-03-13 00:24:00,
2013-03-12 20:25:00,50.4,33.0,29.85,NW,323,10.0,14.0,51,0.00,,---,2.03,VWS V14.01,2013-03-13 00:25:00,
2013-03-12 20:29:00,47.7,30.0,29.89,WSW,246,4.0,14.0,50,0.00,,---,2.03,VWS V14.01,2013-03-13 00:29:00,
2013-03-12 20:30:00,49.9,32.5,29.87,NNW,333,3.0,16.0,51,0.00,,---,2.03,VWS V14.01,2013-03-13 00:30:00,
2013-03-12 20:34:00,47.4,30.7,29.89,WNW,288,7.0,16.0,52,0.00,,---,2.03,VWS V14.01,2013-03-13 00:34:00,
2013-03-12 20:35:00,49.8,32.9,29.87,NW,314,0.0,12.0,52,0.00,,---,2.03,VWS V14.01,2013-03-13 00:35:00,
2013-03-12 20:39:00,47.1,30.4,29.89,West,272,3.0,14.0,52,0.00,,---,2.03,VWS V14.01,2013-03-13 00:39:00,
2013-03-12 20:40:00,49.5,31.6,29.87,NNW,333,0.0,12.0,50,0.00,,---,2.03,VWS V14.01,2013-03-13 00:40:00,
2013-03-12 20:44:00,46.8,30.6,29.90,WNW,282,2.0,10.0,53,0.00,,---,2.03,VWS V14.01,2013-03-13 00:44:00,
2013-03-12 20:45:00,49.2,32.3,29.88,WNW,284,6.0,6.0,52,0.00,,---,2.03,VWS V14.01,2013-03-13 00:45:00,
2013-03-12 20:49:00,46.4,30.2,29.90,NW,320,6.0,12.0,53,0.00,,---,2.03,VWS V14.01,2013-03-13 00:49:00,
2013-03-12 20:50:00,48.9,32.5,29.88,SW,236,1.0,7.0,53,0.00,,---,2.03,VWS V14.01,2013-03-13 00:50:00,
2013-03-12 20:54:00,45.9,30.2,29.90,NW,310,2.0,13.0,54,0.00,,---,2.03,VWS V14.01,2013-03-13 00:54:00,
2013-03-12 20:55:00,48.6,31.3,29.88,NW,312,11.0,15.0,51,0.00,,---,2.03,VWS V14.01,2013-03-13 00:55:00,
2013-03-12 20:59:00,45.6,29.9,29.90,NW,317,6.0,17.0,54,0.00,,---,2.03,VWS V14.01,2013-03-13 00:59:00,
2013-03-12 21:00:00,48.2,30.9,29.88,WNW,294,5.0,22.0,51,0.00,,---,2.03,VWS V14.01,2013-03-13 01:00:00,
2013-03-12 21:04:00,45.3,30.1,29.90,WNW,290,5.0,9.0,55,0.00,,---,2.03,VWS V14.01,2013-03-13 01:04:00,
2013-03-12 21:05:00,48.0,30.8,29.88,NW,313,5.0,17.0,51,0.00,,---,2.03,VWS V14.01,2013-03-13 01:05:00,
2013-03-12 21:09:00,45.1,29.9,29.90,NW,320,4.0,9.0,55,0.00,,---,2.03,VWS V14.01,2013-03-13 01:09:00,
2013-03-12 21:10:00,47.9,30.2,29.88,WNW,295,8.0,19.0,50,0.00,,---,2.03,VWS V14.01,2013-03-13 01:10:00,
2013-03-12 21:14:00,44.8,29.6,29.91,WNW,300,2.0,6.0,55,0.00,,---,2.03,VWS V14.01,2013-03-13 01:14:00,
2013-03-12 21:15:00,47.9,30.7,29.89,WSW,253,5.0,13.0,51,0.00,,---,2.03,VWS V14.01,2013-03-13 01:15:00,
2013-03-12 21:19:00,44.5,29.8,29.91,NE,54,6.0,12.0,56,0.00,,---,2.03,VWS V14.01,2013-03-13 01:19:00,
2013-03-12 21:20:00,47.6,30.4,29.89,WNW,299,12.0,15.0,51,0.00,,---,2.03,VWS V14.01,2013-03-13 01:20:00,
2013-03-12 21:24:00,44.2,29.5,29.91,North,355,7.0,13.0,56,0.00,,---,2.03,VWS V14.01,2013-03-13 01:24:00,
2013-03-12 21:25:00,47.3,30.6,29.89,West,279,5.0,16.0,52,0.00,,---,2.03,VWS V14.01,2013-03-13 01:25:00,
2013-03-12 21:29:00,43.9,29.7,29.92,North,360,8.0,12.0,57,0.00,,---,2.03,VWS V14.01,2013-03-13 01:29:00,
2013-03-12 21:30:00,47.0,30.8,29.90,NW,304,4.0,14.0,53,0.00,,---,2.03,VWS V14.01,2013-03-13 01:30:00,
2013-03-12 21:34:00,43.6,29.4,29.92,WNW,302,0.0,8.0,57,0.00,,---,2.03,VWS V14.01,2013-03-13 01:34:00,
2013-03-12 21:35:00,46.7,30.5,29.90,WNW,299,12.0,12.0,53,0.00,,---,2.03,VWS V14.01,2013-03-13 01:35:00,
2013-03-12 21:39:00,43.4,29.6,29.92,NW,317,7.0,7.0,58,0.00,,---,2.03,VWS V14.01,2013-03-13 01:39:00,
2013-03-12 21:40:00,46.2,30.5,29.90,WSW,252,5.0,12.0,54,0.00,,---,2.03,VWS V14.01,2013-03-13 01:40:00,
2013-03-12 21:44:00,43.2,29.9,29.92,SW,233,1.0,6.0,59,0.00,,---,2.03,VWS V14.01,2013-03-13 01:44:00,
2013-03-12 21:45:00,45.9,30.7,29.90,West,269,8.0,13.0,55,0.00,,---,2.03,VWS V14.01,2013-03-13 01:45:00,
2013-03-12 21:49:00,42.9,29.6,29.92,SSE,166,3.0,9.0,59,0.00,,---,2.03,VWS V14.01,2013-03-13 01:49:00,
2013-03-12 21:50:00,45.5,29.8,29.90,WNW,302,3.0,17.0,54,0.00,,---,2.03,VWS V14.01,2013-03-13 01:50:00,
2013-03-12 21:54:00,42.7,29.8,29.92,NNE,24,13.0,13.0,60,0.00,,---,2.03,VWS V14.01,2013-03-13 01:54:00,
2013-03-12 21:55:00,45.2,30.0,29.90,NW,304,7.0,11.0,55,0.00,,---,2.03,VWS V14.01,2013-03-13 01:55:00,
2013-03-12 21:59:00,42.6,29.3,29.93,SW,225,3.0,7.0,59,0.00,,---,2.03,VWS V14.01,2013-03-13 01:59:00,
2013-03-12 22:00:00,44.9,29.7,29.91,NW,322,6.0,9.0,55,0.00,,---,2.03,VWS V14.01,2013-03-13 02:00:00,
2013-03-12 22:04:00,42.4,29.1,29.93,SSE,158,5.0,6.0,59,0.00,,---,2.03,VWS V14.01,2013-03-13 02:04:00,
2013-03-12 22:05:00,44.8,29.6,29.91,West,275,0.0,6.0,55,0.00,,---,2.03,VWS V14.01,2013-03-13 02:05:00,
2013-03-12 22:09:00,42.3,29.4,29.93,WSW,242,7.0,16.0,60,0.00,,---,2.03,VWS V14.01,2013-03-13 02:09:00,
2013-03-12 22:10:00,44.3,29.6,29.91,NW,306,5.0,12.0,56,0.00,,---,2.03,VWS V14.01,2013-03-13 02:10:00,
2013-03-12 22:14:00,42.0,29.1,29.93,NNE,31,5.0,12.0,60,0.00,,---,2.03,VWS V14.01,2013-03-13 02:14:00,
2013-03-12 22:15:00,44.0,29.8,29.92,NW,323,6.0,13.0,57,0.00,,---,2.03,VWS V14.01,2013-03-13 02:15:00,
2013-03-12 22:19:00,41.9,29.0,29.93,NE,47,7.0,12.0,60,0.00,,---,2.03,VWS V14.01,2013-03-13 02:19:00,
2013-03-12 22:20:00,43.7,29.5,29.92,North,5,8.0,12.0,57,0.00,,---,2.03,VWS V14.01,2013-03-13 02:20:00,
2013-03-12 22:24:00,41.9,29.5,29.93,NNW,340,15.0,19.0,61,0.00,,---,2.03,VWS V14.01,2013-03-13 02:24:00,
2013-03-12 22:25:00,43.6,29.4,29.92,WNW,287,4.0,8.0,57,0.00,,---,2.03,VWS V14.01,2013-03-13 02:25:00,
2013-03-12 22:29:00,41.9,29.5,29.93,North,5,27.0,27.0,61,0.00,,---,2.03,VWS V14.01,2013-03-13 02:29:00,
2013-03-12 22:30:00,43.3,29.5,29.92,NE,36,5.0,10.0,58,0.00,,---,2.03,VWS V14.01,2013-03-13 02:30:00,
2013-03-12 22:34:00,41.9,29.5,29.93,NW,321,10.0,18.0,61,0.00,,---,2.03,VWS V14.01,2013-03-13 02:34:00,
2013-03-12 22:35:00,43.0,29.7,29.92,North,360,1.0,8.0,59,0.00,,---,2.03,VWS V14.01,2013-03-13 02:35:00,
2013-03-12 22:39:00,41.7,29.3,29.93,North,355,15.0,20.0,61,0.00,,---,2.03,VWS V14.01,2013-03-13 02:39:00,
2013-03-12 22:40:00,42.9,29.6,29.92,SSE,159,5.0,12.0,59,0.00,,---,2.03,VWS V14.01,2013-03-13 02:40:00,
2013-03-12 22:44:00,41.7,28.9,29.94,North,355,13.0,15.0,60,0.00,,---,2.03,VWS V14.01,2013-03-13 02:44:00,
2013-03-12 22:45:00,42.6,29.3,29.93,NW,319,7.0,15.0,59,0.00,,---,2.03,VWS V14.01,2013-03-13 02:45:00,
2013-03-12 22:49:00,41.7,28.9,29.94,NW,315,10.0,20.0,60,0.00,,---,2.03,VWS V14.01,2013-03-13 02:49:00,
2013-03-12 22:50:00,42.4,29.1,29.93,SSW,198,0.0,7.0,59,0.00,,---,2.03,VWS V14.01,2013-03-13 02:50:00,
2013-03-12 22:54:00,41.9,29.0,29.94,NW,315,10.0,18.0,60,0.00,,---,2.03,VWS V14.01,2013-03-13 02:54:00,
2013-03-12 22:55:00,42.3,29.4,29.93,NW,313,2.0,6.0,60,0.00,,---,2.03,VWS V14.01,2013-03-13 02:55:00,
2013-03-12 22:59:00,41.7,28.9,29.95,North,351,11.0,16.0,60,0.00,,---,2.03,VWS V14.01,2013-03-13 02:59:00,
2013-03-12 23:00:00,42.2,29.3,29.93,NNE,15,3.0,16.0,60,0.00,,---,2.03,VWS V14.01,2013-03-13 03:00:00,
2013-03-12 23:04:00,41.7,28.4,29.95,NW,323,6.0,15.0,59,0.00,,---,2.03,VWS V14.01,2013-03-13 03:04:00,
2013-03-12 23:05:00,42.0,29.1,29.93,North,350,6.0,12.0,60,0.00,,---,2.03,VWS V14.01,2013-03-13 03:05:00,
2013-03-12 23:09:00,41.7,28.9,29.95,NNW,343,7.0,13.0,60,0.00,,---,2.03,VWS V14.01,2013-03-13 03:09:00,
2013-03-12 23:10:00,41.9,29.0,29.93,North,9,4.0,12.0,60,0.00,,---,2.03,VWS V14.01,2013-03-13 03:10:00,
2013-03-12 23:14:00,41.6,28.8,29.95,NNW,342,16.0,19.0,60,0.00,,---,2.03,VWS V14.01,2013-03-13 03:14:00,
2013-03-12 23:15:00,41.9,29.0,29.93,NNE,22,11.0,19.0,60,0.00,,---,2.03,VWS V14.01,2013-03-13 03:15:00,
2013-03-12 23:19:00,41.4,29.0,29.95,NNW,338,11.0,16.0,61,0.00,,---,2.03,VWS V14.01,2013-03-13 03:19:00,
2013-03-12 23:20:00,41.9,29.5,29.93,North,349,10.0,27.0,61,0.00,,---,2.03,VWS V14.01,2013-03-13 03:20:00,
2013-03-12 23:24:00,41.4,28.6,29.95,NNW,333,9.0,16.0,60,0.00,,---,2.03,VWS V14.01,2013-03-13 03:24:00,
2013-03-12 23:25:00,41.7,29.3,29.93,North,349,11.0,18.0,61,0.00,,---,2.03,VWS V14.01,2013-03-13 03:25:00,
2013-03-12 23:29:00,41.4,29.0,29.95,NNW,344,0.0,9.0,61,0.00,,---,2.03,VWS V14.01,2013-03-13 03:29:00,
2013-03-12 23:30:00,41.7,28.9,29.94,North,5,12.0,20.0,60,0.00,,---,2.03,VWS V14.01,2013-03-13 03:30:00,
2013-03-12 23:34:00,41.3,28.9,29.95,WNW,295,7.0,13.0,61,0.00,,---,2.03,VWS V14.01,2013-03-13 03:34:00,
2013-03-12 23:35:00,41.7,28.9,29.94,NNW,330,9.0,16.0,60,0.00,,---,2.03,VWS V14.01,2013-03-13 03:35:00,
2013-03-12 23:39:00,41.3,28.9,29.95,West,277,3.0,9.0,61,0.00,,---,2.03,VWS V14.01,2013-03-13 03:39:00,
2013-03-12 23:40:00,41.9,29.0,29.94,NNW,336,12.0,20.0,60,0.00,,---,2.03,VWS V14.01,2013-03-13 03:40:00,
2013-03-12 23:44:00,41.3,28.5,29.95,North,9,3.0,9.0,60,0.00,,---,2.03,VWS V14.01,2013-03-13 03:44:00,
2013-03-12 23:45:00,41.7,29.3,29.95,NW,325,11.0,18.0,61,0.00,,---,2.03,VWS V14.01,2013-03-13 03:45:00,
2013-03-12 23:49:00,41.2,28.4,29.95,WSW,243,7.0,7.0,60,0.00,,---,2.03,VWS V14.01,2013-03-13 03:49:00,
2013-03-12 23:50:00,41.7,28.9,29.95,NW,313,9.0,16.0,60,0.00,,---,2.03,VWS V14.01,2013-03-13 03:50:00,
2013-03-12 23:54:00,41.2,28.4,29.95,SSW,212,5.0,11.0,60,0.00,,---,2.03,VWS V14.01,2013-03-13 03:54:00,
2013-03-12 23:55:00,41.7,28.9,29.95,North,350,4.0,15.0,60,0.00,,---,2.03,VWS V14.01,2013-03-13 03:55:00,
2013-03-12 23:59:00,41.2,27.6,29.95,South,182,3.0,7.0,58,0.00,,---,2.03,VWS V14.01,2013-03-13 03:59:00,